When you browse on this site, cookies collect data to enhance your experience and personalize the content and advertising you see.
Visit our Privacy Policy to learn more. By continuing to use the site, you agree to this use of cookies and data.
  • In Spain
  • List of Countries
  • For 7 days
  • Water Temperature
  • Weather Map
  • Weather Widgets
  • user-avatar
    Login

    Hourly Weather Mochudi

    Today, 26 February, Wednesday

    Time Temperature Precipitation Wind Pressure Humidity
    00:00 +22°C° 0 mm 1 mps 681 mmHg 57%
    01:00 +21°C° 0 mm 1 mps 680 mmHg 59%
    02:00 +21°C° 0 mm 1 mps 680 mmHg 61%
    03:00 +20°C° 0 mm 1 mps 680 mmHg 63%
    04:00 +19°C° 0 mm 2 mps 680 mmHg 65%
    05:00 +19°C° 0 mm 2 mps 680 mmHg 66%
    06:00 +19°C° 0 mm 2 mps 681 mmHg 63%
    07:00 +20°C° 0 mm 3 mps 681 mmHg 60%
    08:00 +21°C° 0 mm 3 mps 682 mmHg 57%
    09:00 +25°C° 0 mm 3 mps 682 mmHg 50%
    10:00 +27°C° 0 mm 3 mps 682 mmHg 43%
    11:00 +29°C° 0 mm 2 mps 683 mmHg 36%
    12:00 +31°C° 0 mm 3 mps 682 mmHg 31%
    13:00 +33°C° 0 mm 3 mps 682 mmHg 27%
    14:00 +34°C° 0 mm 3 mps 681 mmHg 23%
    15:00 +34°C° 0 mm 3 mps 680 mmHg 23%
    16:00 +34°C° 0 mm 2 mps 680 mmHg 22%
    17:00 +34°C° 0 mm 2 mps 679 mmHg 22%
    18:00 +31°C° 0 mm 2 mps 679 mmHg 25%
    19:00 +29°C° 0 mm 2 mps 679 mmHg 29%
    20:00 +27°C° 0 mm 1 mps 679 mmHg 32%
    21:00 +26°C° 0 mm 1 mps 679 mmHg 33%
    22:00 +26°C° 0 mm 1 mps 679 mmHg 34%
    23:00 +25°C° 0 mm 1 mps 680 mmHg 35%

    Tomorrow, 27 February, Thursday

    Time Temperature Precipitation Wind Pressure Humidity
    00:00 +25°C° 0 mm 1 mps 679 mmHg 36%
    01:00 +24°C° 0 mm 1 mps 679 mmHg 37%
    02:00 +24°C° 0 mm 1 mps 679 mmHg 38%
    03:00 +23°C° 0 mm 1 mps 679 mmHg 40%
    04:00 +23°C° 0 mm 1 mps 679 mmHg 42%
    05:00 +22°C° 0 mm 1 mps 679 mmHg 44%
    06:00 +23°C° 0 mm 1 mps 680 mmHg 42%
    07:00 +24°C° 0 mm 1 mps 680 mmHg 40%
    08:00 +25°C° 0 mm 1 mps 681 mmHg 39%
    09:00 +28°C° 0 mm 1 mps 681 mmHg 34%
    10:00 +30°C° 0 mm 1 mps 681 mmHg 29%
    11:00 +33°C° 0 mm 1 mps 682 mmHg 25%
    12:00 +35°C° 0 mm 2 mps 681 mmHg 22%
    13:00 +36°C° 0 mm 2 mps 681 mmHg 20%
    14:00 +37°C° 0 mm 2 mps 680 mmHg 17%
    15:00 +37°C° 0 mm 2 mps 680 mmHg 17%
    16:00 +37°C° 0 mm 2 mps 679 mmHg 17%
    17:00 +36°C° 0 mm 1 mps 679 mmHg 16%
    18:00 +34°C° 0 mm 1 mps 679 mmHg 19%
    19:00 +31°C° 0 mm 1 mps 678 mmHg 22%
    20:00 +29°C° 0 mm 1 mps 678 mmHg 25%
    21:00 +28°C° 0 mm 1 mps 678 mmHg 27%
    22:00 +28°C° 0 mm 1 mps 679 mmHg 28%
    23:00 +27°C° 0 mm 1 mps 679 mmHg 30%

    Day after tomorrow, 28 February, Friday

    Time Temperature Precipitation Wind Pressure Humidity
    00:00 +27°C° 0 mm 1 mps 679 mmHg 31%
    01:00 +26°C° 0 mm 1 mps 679 mmHg 32%
    02:00 +26°C° 0 mm 1 mps 678 mmHg 33%
    03:00 +25°C° 0 mm 1 mps 678 mmHg 35%
    04:00 +24°C° 0 mm 1 mps 679 mmHg 37%
    05:00 +24°C° 0 mm 2 mps 679 mmHg 39%
    06:00 +25°C° 0 mm 2 mps 679 mmHg 37%
    07:00 +26°C° 0 mm 3 mps 680 mmHg 36%
    08:00 +27°C° 0 mm 3 mps 681 mmHg 35%
    09:00 +29°C° 0 mm 3 mps 681 mmHg 31%
    10:00 +32°C° 0 mm 4 mps 681 mmHg 27%
    11:00 +35°C° 0 mm 4 mps 681 mmHg 23%
    12:00 +36°C° 0 mm 3 mps 681 mmHg 21%
    13:00 +37°C° 0 mm 3 mps 681 mmHg 20%
    14:00 +38°C° 0 mm 3 mps 680 mmHg 19%
    15:00 +38°C° 0 mm 3 mps 679 mmHg 19%
    16:00 +38°C° 0 mm 3 mps 679 mmHg 19%
    17:00 +38°C° 0 mm 3 mps 678 mmHg 19%
    18:00 +36°C° 0 mm 3 mps 679 mmHg 22%
    19:00 +34°C° 0 mm 2 mps 679 mmHg 25%
    20:00 +31°C° 0 mm 2 mps 679 mmHg 29%
    21:00 +30°C° 0 mm 3 mps 680 mmHg 30%
    22:00 +29°C° 0 mm 3 mps 680 mmHg 31%
    23:00 +29°C° 0 mm 3 mps 681 mmHg 33%

    29 February, Saturday

    Time Temperature Precipitation Wind Pressure Humidity
    00:00 +28°C° 0 mm 3 mps 681 mmHg 40%
    01:00 +27°C° 0 mm 4 mps 681 mmHg 48%
    02:00 +26°C° 0 mm 5 mps 681 mmHg 55%
    03:00 +25°C° 0 mm 5 mps 681 mmHg 59%
    04:00 +24°C° 0 mm 6 mps 682 mmHg 63%
    05:00 +23°C° 0 mm 7 mps 682 mmHg 67%
    06:00 +23°C° 0 mm 6 mps 682 mmHg 65%
    07:00 +23°C° 0 mm 6 mps 683 mmHg 64%
    08:00 +23°C° 0 mm 6 mps 683 mmHg 63%
    09:00 +24°C° 0 mm 6 mps 683 mmHg 58%
    10:00 +26°C° 0 mm 6 mps 684 mmHg 53%
    11:00 +27°C° 0 mm 6 mps 684 mmHg 48%
    12:00 +28°C° 0 mm 5 mps 683 mmHg 45%
    13:00 +29°C° 0 mm 5 mps 683 mmHg 43%
    14:00 +30°C° 0 mm 5 mps 682 mmHg 41%
    15:00 +30°C° 0 mm 5 mps 682 mmHg 41%
    16:00 +30°C° 0 mm 5 mps 681 mmHg 41%
    17:00 +30°C° 0 mm 5 mps 681 mmHg 41%
    18:00 +28°C° 0 mm 4 mps 681 mmHg 45%
    19:00 +27°C° 0 mm 4 mps 681 mmHg 50%
    20:00 +25°C° 0 mm 3 mps 681 mmHg 54%
    21:00 +25°C° 0 mm 3 mps 681 mmHg 56%
    22:00 +23°C° 0 mm 4 mps 681 mmHg 58%
    23:00 +23°C° 0 mm 4 mps 682 mmHg 60%

    1 March, Sunday

    Time Temperature Precipitation Wind Pressure Humidity
    00:00 +22°C° 0 mm 5 mps 682 mmHg 63%
    01:00 +21°C° 0 mm 5 mps 681 mmHg 66%
    02:00 +20°C° 0 mm 6 mps 681 mmHg 70%
    03:00 +20°C° 0 mm 6 mps 681 mmHg 72%
    04:00 +19°C° 0 mm 5 mps 681 mmHg 74%
    05:00 +19°C° 0 mm 5 mps 681 mmHg 76%
    06:00 +19°C° 0 mm 5 mps 681 mmHg 73%
    07:00 +20°C° 0 mm 5 mps 681 mmHg 70%
    08:00 +20°C° 0 mm 5 mps 682 mmHg 67%
    09:00 +22°C° 0 mm 5 mps 682 mmHg 61%
    10:00 +23°C° 0 mm 4 mps 682 mmHg 55%
    11:00 +26°C° 0 mm 4 mps 683 mmHg 49%
    12:00 +26°C° 0 mm 4 mps 682 mmHg 48%
    13:00 +27°C° 0 mm 3 mps 682 mmHg 47%
    14:00 +27°C° 0 mm 3 mps 681 mmHg 46%
    15:00 +25°C° 0.6 mm 3 mps 680 mmHg 56%
    16:00 +22°C° 0.6 mm 4 mps 680 mmHg 66%
    17:00 +20°C° 0.6 mm 4 mps 679 mmHg 76%
    18:00 +20°C° 0.4 mm 3 mps 679 mmHg 79%
    19:00 +19°C° 0.4 mm 2 mps 678 mmHg 81%
    20:00 +20°C° 0.4 mm 1 mps 678 mmHg 84%
    21:00 +20°C° 0 mm 1 mps 678 mmHg 84%
    22:00 +19°C° 0 mm 1 mps 678 mmHg 85%
    23:00 +17°C° 0 mm 0 mps 678 mmHg 86%

    2 March, Monday

    Time Temperature Precipitation Wind Pressure Humidity
    00:00 +19°C° 0 mm 1 mps 678 mmHg 86%
    01:00 +19°C° 0 mm 1 mps 678 mmHg 86%
    02:00 +18°C° 0 mm 2 mps 678 mmHg 86%
    03:00 +18°C° 0 mm 2 mps 678 mmHg 85%
    04:00 +18°C° 0 mm 2 mps 678 mmHg 84%
    05:00 +19°C° 0 mm 1 mps 678 mmHg 83%
    06:00 +19°C° 0 mm 2 mps 679 mmHg 80%
    07:00 +19°C° 0 mm 2 mps 679 mmHg 77%
    08:00 +20°C° 0 mm 3 mps 679 mmHg 74%
    09:00 +22°C° 0 mm 3 mps 679 mmHg 66%
    10:00 +25°C° 0 mm 3 mps 680 mmHg 58%
    11:00 +27°C° 0 mm 4 mps 680 mmHg 49%
    12:00 +29°C° 0 mm 3 mps 680 mmHg 44%
    13:00 +31°C° 0 mm 3 mps 679 mmHg 39%
    14:00 +34°C° 0 mm 2 mps 679 mmHg 33%
    15:00 +31°C° 0.2 mm 3 mps 678 mmHg 41%
    16:00 +28°C° 0.2 mm 4 mps 677 mmHg 50%
    17:00 +26°C° 0.2 mm 5 mps 676 mmHg 58%
    18:00 +26°C° 0.1 mm 4 mps 677 mmHg 57%
    19:00 +26°C° 0.1 mm 3 mps 677 mmHg 57%
    20:00 +26°C° 0.1 mm 2 mps 677 mmHg 56%
    21:00 +25°C° 0 mm 1 mps 678 mmHg 59%
    22:00 +24°C° 0 mm 1 mps 678 mmHg 61%
    23:00 +24°C° 0 mm 1 mps 678 mmHg 64%
    Show more